FENGYUN 1C DEB, 38797

Orbit data source: Space-Track

FENGYUN 1C DEB, 38797 is space debris in SSO originally from a launch on Mon, 10 May 1999 UTC launched from the Taiyaun Space Center, China (TSC). Fengyun 1C debris stems from the Chinese weather satellite Fengyun-1C, which was intentionally destroyed by a Chinese anti-satellite missile in 2007. This event dramatically increased the amount of space debris, with thousands of trackable fragments posing hazards to satellites and human spaceflight. The Fengyun 1C debris cloud has become a focal point in discussions about space sustainability and the need for international regulations to prevent the creation of new debris.

Loading next visibility...
Identifier
38797, 1999-025EUM
Orbit
SSO
Country
Flag of CNCN / PRC
Related business
Manufacturer
Unknown
Mission
Spacecraft
Bus & Motor
Unknown
Mass
Unknown
Launch date (UTC)
1999-05-10 (27 years ago)
Launch vehicle
Unknown
Launch site
Taiyaun Space Center, China (TSC)
Object type
Payload
Rocket body
Debris
Shape & HBR
Unknown shape, 0.1 m
Radar Cross Section
Small (<0.1 m²)

Expand to show TLE details & history
Last TLE update: 1 week ago

TLE from 1 week ago
0 FENGYUN 1C DEB
1 38797U 99025EUM 26246.93371200  .00000012  00000-0  60473-4 0  9991
2 38797  99.4559 137.2246 0244447 263.9055  93.4187 13.61864089628922
Epoch: 2026-09-03T22:24Z
TLE epoch observation values (Epoch: 2026-09-03T22:24:32.716Z)
Latitude
0.00001°
Longitude
178.02351°
Altitude
1,046.936 km
Speed
7.321 km/s
True Right ascension
09h 08m 53s
True Declination
0° 00' 00"
Sunlit
Object was in daylight at epoch
Visualization orbit readout
Latitude
Unknown
Longitude
Unknown
Altitude
Unknown
Speed
Unknown
Apparent Right ascension
Unknown
Apparent Declination
Unknown
Sunlit
N/A
Visualization observer readout
Local Sidereal Time
07:33:12
Azimuth
Unknown
Elevation
Unknown
Doppler factor
Unknown
Orbital elements
Apogee altitude
1,207.193 km
Perigee altitude
845.199 km
Semi-major axis
7,404.333 km
Eccentricity
0.02444
Inclination
99.4559°
RAAN
137.2246°
Arg. of periapsis
263.9055°
True anomaly
96.20868°
Mean anomaly
93.4187°
Eccentric anomaly
94.81434°
Mean motion
3.40655 °/min
Orbital period
105.68 mins
BSTAR
0.000060473
Loading maneuver chart data...
Computing Atmospheric mass density...

Documentation

Showing up to 5 results
|